This is the latest recevied weather packets stored in our database for station/object OK4PZ-5. If no packets are shown the sender has not sent any weather packets the latest 10 day(s).
| Time | Temp. | Humidity | Pressure | Rain* | Wind** | Luminosity | Snow |
|---|---|---|---|---|---|---|---|
| 1788176702 | 23.33° C | 62% | 1019 hPa | 0 mm | - | - | - |
| 1788175802 | 23.33° C | 66% | 1019 hPa | 0 mm | - | - | - |
| 1788174902 | 22.78° C | 67% | 1019 hPa | 0 mm | - | - | - |
| 1788174002 | 22.78° C | 66% | 1019 hPa | 0 mm | - | - | - |
| 1788173102 | 22.78° C | 66% | 1019 hPa | 0 mm | - | - | - |
| 1788172202 | 22.78° C | 69% | 1019 hPa | 0 mm | - | - | - |
| 1788171302 | 22.22° C | 71% | 1019 hPa | 0 mm | - | - | - |
| 1788170402 | 22.78° C | 68% | 1019 hPa | 0 mm | - | - | - |
| 1788168602 | 22.22° C | 69% | 1019 hPa | 0 mm | - | - | - |
| 1788167702 | 22.78° C | 69% | 1018 hPa | 0 mm | - | - | - |
| 1788166802 | 22.22° C | 73% | 1018 hPa | 0 mm | - | - | - |
| 1788165902 | 20.56° C | 80% | 1019 hPa | 0 mm | - | - | - |
| 1788165002 | 20.56° C | 80% | 1018 hPa | 0 mm | - | - | - |
| 1788164102 | 20.56° C | 80% | 1018 hPa | 0 mm | - | - | - |
| 1788163202 | 20° C | 81% | 1018 hPa | 0 mm | - | - | - |
| 1788162302 | 19.44° C | 82% | 1018 hPa | 0 mm | - | - | - |
| 1788161403 | 18.33° C | 84% | 1018 hPa | 0 mm | - | - | - |
| 1788160503 | 18.33° C | 85% | 1018 hPa | 0 mm | - | - | - |
| 1788159602 | 18.33° C | 85% | 1018 hPa | 0 mm | - | - | - |
| 1788158702 | 17.78° C | 87% | 1018 hPa | 0 mm | - | - | - |
| 1788157803 | 16.67° C | 92% | 1018 hPa | 0 mm | - | - | - |
| 1788156903 | 16.11° C | 94% | 1017 hPa | 0 mm | - | - | - |
| 1788156002 | 15.56° C | 94% | 1017 hPa | 0 mm | - | - | - |
| 1788155102 | 16.11° C | 94% | 1017 hPa | 0 mm | - | - | - |
| 1788154202 | 15.56° C | 93% | 1017 hPa | 0 mm | - | - | - |
* Rain latest hour (hover to see other rain measurements)
** Current wind speed in m/s (hover to see current wind gust speed)